Weather History for Lone Rock, WI

Change the Weather History Date:

Sunday, May 19, 2013

  Actual Average Record
Temperature  
Mean Temperature 73 °F -  
Max Temperature 86 °F 66 °F 91 °F (2012)
Min Temperature 62 °F 45 °F 32 °F (2002)
Cooling Degree Days 8    
Growing Degree Days 23 (Base 50)    
Moisture  
Dew Point 62 °F    
Average Humidity 67    
Maximum Humidity 94    
Minimum Humidity 42    
Precipitation  
Precipitation 0.00 in - - ()
Sea Level Pressure  
Sea Level Pressure 29.77 in    
Wind  
Wind Speed 8 mph (SE)    
Max Wind Speed 20 mph    
Max Gust Speed 36 mph    
Visibility 8 miles    
Events Thunderstorm    
Averages and records for this station are not official NWS values.
T = Trace of Precipitation, MM = Missing Value Source: NWS Daily Summary

Daily Weather History Graph

Daily Weather History Graph

Search for Another Location

Airport:

Trip Planner

Search our weather history database for the weather conditions in past years. The results will help you decide how hot, cold, wet, or windy it might be!

Date:

Astronomy

May. 19, 2013 Rise Set
Actual Time 5:32 AM CDT 8:22 PM CDT
Civil Twilight 4:59 AM CDT 8:55 PM CDT
Nautical Twilight 4:17 AM CDT 9:37 PM CDT
Astronomical Twilight 3:28 AM CDT 10:27 PM CDT
Moon 2:17 PM CDT (5/19) 2:06 AM CDT (5/19)
Length of Visible Light 15h 56m
Length of Day
14h 49m
Waxing Gibbous, 65% of the Moon is Illuminated
May 19
Waxing Gibbous
May 24
Full
May 31
Last Quarter
Jun 8
New
Jun 16
First Quarter

Hourly Weather History & Observations

Time (CDT) Temp. Heat Index Dew Point Humidity Pressure Visibility Wind Dir Wind Speed Gust Speed Precip Events Conditions
12:56 AM 64.9 °F - 60.1 °F 84% 29.88 in 7.0 mi East 5.8 mph - N/A   Clear
1:56 AM 66.0 °F - 60.1 °F 81% 29.86 in 6.0 mi East 8.1 mph - N/A   Haze
2:56 AM 64.0 °F - 60.1 °F 87% 29.87 in 5.0 mi East 8.1 mph - N/A   Clear
3:56 AM 66.0 °F - 60.1 °F 81% 29.89 in 6.0 mi SSE 4.6 mph - N/A   Haze
4:56 AM 64.0 °F - 60.1 °F 87% 29.88 in 5.0 mi Calm Calm - N/A   Clear
5:43 AM 62.6 °F - 60.8 °F 94% 29.91 in 2.5 mi East 5.8 mph - N/A   Mostly Cloudy
5:56 AM 63.0 °F - 60.1 °F 90% 29.88 in 2.5 mi East 5.8 mph - N/A   Overcast
6:18 AM 64.4 °F - 60.8 °F 88% 29.92 in 3.0 mi ESE 4.6 mph - N/A   Scattered Clouds
6:56 AM 66.0 °F - 62.1 °F 87% 29.86 in 3.0 mi East 10.4 mph - N/A   Partly Cloudy
7:56 AM 68.0 °F - 62.1 °F 81% 29.88 in 4.0 mi ESE 6.9 mph - N/A   Haze
8:56 AM 70.0 °F - 63.0 °F 78% 29.88 in 5.0 mi ESE 6.9 mph - N/A   Haze
9:56 AM 73.0 °F - 63.0 °F 71% 29.84 in 7.0 mi ESE 9.2 mph - N/A   Partly Cloudy
10:56 AM 73.9 °F - 64.0 °F 71% 29.75 in 7.0 mi East 12.7 mph 21.9 mph N/A   Clear
11:54 AM 78.8 °F - 64.4 °F 61% 29.82 in 8.0 mi South 12.7 mph 25.3 mph N/A   Clear
11:56 AM 78.1 °F - 64.9 °F 64% 29.80 in 8.0 mi SSE 10.4 mph 21.9 mph N/A   Clear
12:56 PM 81.0 °F 82.7 °F 64.9 °F 58% 29.78 in 9.0 mi South 13.8 mph 23.0 mph N/A   Clear
1:56 PM 84.9 °F 86.1 °F 64.0 °F 49% 29.76 in 10.0 mi South 18.4 mph 25.3 mph N/A   Scattered Clouds
2:56 PM 84.9 °F 85.9 °F 63.0 °F 48% 29.73 in 10.0 mi SSE 19.6 mph 35.7 mph N/A   Partly Cloudy
3:56 PM 79.0 °F - 54.0 °F 42% 29.69 in 10.0 mi ESE 6.9 mph 19.6 mph N/A   Clear
4:56 PM 80.1 °F 80.2 °F 55.9 °F 43% 29.69 in 10.0 mi WSW 6.9 mph - N/A   Clear
5:56 PM 82.0 °F 82.1 °F 59.0 °F 45% 29.69 in 10.0 mi South 5.8 mph - N/A   Clear
6:56 PM 82.0 °F 83.4 °F 64.0 °F 54% 29.65 in 10.0 mi SE 10.4 mph - N/A   Partly Cloudy
7:56 PM 79.0 °F - 63.0 °F 58% 29.65 in 10.0 mi East 10.4 mph - N/A   Scattered Clouds
8:56 PM 81.0 °F 82.2 °F 63.0 °F 54% 29.62 in 10.0 mi ESE 11.5 mph - N/A   Mostly Cloudy
9:16 PM 80.6 °F 81.8 °F 62.6 °F 54% 29.64 in 10.0 mi ESE 13.8 mph - N/A Thunderstorm Partly Cloudy
9:31 PM 80.6 °F 81.8 °F 62.6 °F 54% 29.63 in 10.0 mi SE 15.0 mph 21.9 mph N/A   Clear
9:56 PM 78.1 °F - 64.0 °F 62% 29.60 in 9.0 mi SSE 8.1 mph - N/A   Clear
10:56 PM 75.9 °F - 61.0 °F 60% 29.60 in 10.0 mi SE 4.6 mph - N/A   Clear
11:56 PM 73.9 °F - 59.0 °F 59% 29.65 in 10.0 mi WNW 6.9 mph - N/A   Overcast